Home   Weather   Pasadena   Past weeks

Flag for USA Past Weather in Pasadena, Texas, USA — Yesterday and Last 2 Weeks

Now
73 °F

Scattered clouds.


Feels Like: 77 °F
Forecast: 64 / 82 °F
Wind: 10 mph from South

Location: Houston / Ellington

Current Time: Apr 24, 2017 at 7:59:59 pm

Latest Report: Apr 24, 2017 at 6:50 pm


Visibility: 10 mi

Pressure: 29.82 "Hg

Humidity: 47%

Dew Point: 52 °F

Location of PasadenaLocation

Past Weather in Pasadena — Graph

°F

Pasadena Temperature Yesterday

Maximum temperature yesterday: 72 °F (at 4:50 pm)
Minimum temperature yesterday: 55 °F (at 5:50 am)
Average temperature yesterday: 64 °F

High & Low Weather Summary for the Past Weeks

 TemperatureHumidityPressure
High86 °F (Apr 20, 1:50 pm)100% (Apr 11, 1:50 pm)30.22 "Hg (Apr 11, 1:50 pm)
Low55 °F (Apr 23, 5:50 am)34% (Apr 24, 1:50 pm)29.82 "Hg (Apr 24, 5:50 pm)
Average73 °F77%30.05 "Hg
* Reported Apr 9 6:50 pm — Apr 24 6:50 pm, Pasadena, Weather by CustomWeather, © 2017

Note: Actual official high and low records may vary slightly from our data, if they occured in-between our weather recording intervals... More about our weather records

Advertising

Pasadena Weather History for the Previous 24 Hours

Scroll right to see more
 ConditionsComfort  
Time TempWeatherWind HumidityBarometerVisibility
6:50 pm
Mon, Apr 24
73 °FScattered clouds.10 mph47%29.82 "Hg10 mi
5:50 pm77 °FScattered clouds.13 mph42%29.82 "Hg10 mi
4:50 pm79 °FScattered clouds.10 mph34%29.83 "Hg10 mi
3:50 pm77 °FPassing clouds.6 mph36%29.86 "Hg10 mi
1:50 pm79 °FPassing clouds.6 mph34%29.92 "Hg10 mi
12:50 pm75 °FScattered clouds.6 mph39%29.96 "Hg10 mi
11:50 am73 °FScattered clouds.5 mph41%29.98 "Hg10 mi
10:50 am72 °FPassing clouds.No wind44%30.02 "Hg10 mi
9:50 am66 °FPassing clouds.No wind60%30.01 "Hg10 mi
8:50 am64 °FPassing clouds.No wind64%30.00 "Hg10 mi
7:50 am61 °FScattered clouds.No wind72%30.00 "Hg10 mi
6:50 am57 °FPassing clouds.N/A77%29.99 "Hg10 mi
5:50 am55 °FClear.No wind82%29.98 "Hg10 mi
4:50 am55 °FClear.No wind82%29.98 "Hg10 mi
1:50 am59 °FClear.5 mph72%30.00 "Hg10 mi
10:50 pm
Sun, Apr 23
66 °FClear.No wind49%30.02 "Hg10 mi
9:50 pm68 °FClear.6 mph46%30.02 "Hg10 mi
8:50 pm68 °FPassing clouds.6 mph46%30.00 "Hg10 mi
7:50 pm70 °FPassing clouds.9 mph43%29.99 "Hg10 mi
Weather by CustomWeather, © 2017

See weather overviewHow to use our weather pages